STARLINK-1281, 45370

Orbit data source: Space-Track

STARLINK-1281, 45370 is a payload satellite owned by SpaceX/Seattle (US) in LEO that was launched on Wed, 18 Mar 2020 UTC via an FALCON 9 launch vehicle from the Air Force Eastern Test Range (AFETR). Payload-class satellites include a variety of spacecraft equipped with specific instruments for various scientific and technological missions. These include communications satellites like Starlink; space stations such as the ISS; scientific satellites like the Hubble; Earth observation satellites from companies like Planet Labs, Umbra, and HawkEye 360; GPS; miniature CubeSats for education and research; and military/defense satellites.

Loading next visibility...
Identifier
45370, 2020-019L
Orbit
LEO
Country
Flag of USUS
Related business
Manufacturer
SpaceX/Seattle
Mission
Partially operational Commercial Communications
Bus & Motor
STARLINK, Unknown motor
Mass
260 kg wet, ~248 kg dry
Launch date (UTC)
2020-03-18 (6 years ago)
Launch vehicle
FALCON 9
Launch site
Air Force Eastern Test Range (AFETR)
Object type
Payload
Rocket body
Debris
Shape & HBR
Box + 1 Pan, 10.1 m
Radar Cross Section
13.562 m², Large (>1 m²)

Expand to show TLE details & history
Last TLE update: 8 hours ago

TLE from 8 hours ago
0 STARLINK-1281
1 45370U 20019L   26169.97571227  .00034563  00000-0  98262-3 0  9996
2 45370  53.1560  53.4104 0004496 107.3005 252.8491 15.35854682345287
Epoch: 2026-06-18T23:25Z
TLE epoch observation values (Epoch: 2026-06-18T23:25:01.540Z)
Latitude
0.00005°
Longitude
154.9427°
Altitude
460.192 km
Speed
7.637 km/s
True Right ascension
03h 33m 38s
True Declination
0° 00' 00"
Sunlit
Object was in daylight at epoch
Visualization orbit readout
Latitude
Unknown
Longitude
Unknown
Altitude
Unknown
Speed
Unknown
Apparent Right ascension
Unknown
Apparent Declination
Unknown
Sunlit
N/A
Visualization observer readout
Local Sidereal Time
17:58:15
Azimuth
Unknown
Elevation
Unknown
Doppler factor
Unknown
Orbital elements
Apogee altitude
461.715 km
Perigee altitude
455.567 km
Semi-major axis
6,836.778 km
Eccentricity
0.00045
Inclination
53.156°
RAAN
53.4104°
Arg. of periapsis
107.3005°
True anomaly
252.79988°
Mean anomaly
252.8491°
Eccentric anomaly
252.82449°
Mean motion
3.83942 °/min
Orbital period
93.76 mins
BSTAR
0.00098262
Loading maneuver chart data...
Computing Atmospheric mass density...

Documentation

Showing up to 5 results
|